Appleton, MN

6:29 AM CDT on March 30, 2017 (GMT -0500)
Appleton Municipal

Weather History for KAQP - October, 2012

Change the Weather History Date:

Monday, October 1, 2012

  Actual Average Record
Temperature  
Mean Temperature 56 °F -  
Max Temperature 71 °F 62 °F 84 °F (2005)
Min Temperature 42 °F 37 °F 23 °F (2003)
Degree Days  
Heating Degree Days 8    
Growing Degree Days 6 (Base 50)    
Moisture  
Dew Point 35 °F    
Average Humidity 41    
Maximum Humidity 72    
Minimum Humidity 16    
Precipitation  
Precipitation 0.00 in - - ()
Sea Level Pressure  
Sea Level Pressure 29.99 in    
Wind  
Wind Speed 14 mph (NNW)    
Max Wind Speed 26 mph    
Max Gust Speed 34 mph    
Visibility 10 miles    
Events Rain    
Averages and records for this station are not official NWS values.
T = Trace of Precipitation, MM = Missing Value Source: NWS Daily Summary

Daily Weather History Graph

Daily Weather History Graph

Search for Another Location

Airport or City:

Trip Planner

Search our weather history database for the weather conditions in past years. The results will help you decide how hot, cold, wet, or windy it might be!

Date:

Astronomy

Oct. 01, 2012 Rise Set
Actual Time 7:22 AM CDT 7:03 PM CDT
Civil Twilight 6:53 AM CDT 7:32 PM CDT
Nautical Twilight 6:19 AM CDT 8:06 PM CDT
Astronomical Twilight 5:44 AM CDT 8:41 PM CDT
Moon 7:33 PM CDT (10/1) 9:00 AM CDT (10/1)
Length of Visible Light 12h 39m
Length of Day
11h 40m
Full, 98% of the Moon is Illuminated
Oct 1
Full
Oct 8
Last Quarter
Oct 15
New
Oct 21
First Quarter
Oct 29
Full

Hourly Weather History & Observations

Time (CDT) Temp. Windchill Dew Point Humidity Pressure Visibility Wind Dir Wind Speed Gust Speed Precip Events Conditions
12:14 AM 64.4 °F - 44.6 °F 49% 29.89 in 10.0 mi NW 8.1 mph - N/A   Clear
12:33 AM 64.4 °F - 44.6 °F 49% 29.89 in 10.0 mi NW 9.2 mph - N/A   Clear
12:53 AM 66.2 °F - 44.6 °F 46% 29.89 in 10.0 mi NW 8.1 mph - N/A   Clear
1:13 AM 68.0 °F - 46.4 °F 46% 29.89 in 10.0 mi NNW 13.8 mph - N/A   Scattered Clouds
1:33 AM 68.0 °F - 46.4 °F 46% 29.89 in 10.0 mi North 15.0 mph 21.9 mph N/A   Scattered Clouds
1:54 AM 66.2 °F - 46.4 °F 49% 29.91 in 10.0 mi NW 12.7 mph - N/A   Scattered Clouds
2:33 AM 66.2 °F - 46.4 °F 49% 29.93 in 10.0 mi NW 15.0 mph 20.7 mph N/A   Clear
2:54 AM 64.4 °F - 42.8 °F 45% 29.93 in 10.0 mi NNW 20.7 mph 26.5 mph N/A   Clear
3:13 AM 64.4 °F - 44.6 °F 49% 29.93 in 10.0 mi NNW 17.3 mph 24.2 mph N/A   Scattered Clouds
3:33 AM 62.6 °F - 44.6 °F 52% 29.94 in 10.0 mi NW 15.0 mph 26.5 mph N/A Rain Light Rain
3:54 AM 60.8 °F - 46.4 °F 59% 29.94 in 10.0 mi NNW 12.7 mph 20.7 mph N/A Rain Light Rain
4:14 AM 60.8 °F - 48.2 °F 63% 29.95 in 10.0 mi NNW 15.0 mph - N/A Rain Light Rain
4:34 AM 57.2 °F - 48.2 °F 72% 29.93 in 7.0 mi North 17.3 mph 27.6 mph N/A Rain Light Rain
4:53 AM 57.2 °F - 48.2 °F 72% 29.94 in 10.0 mi NNW 16.1 mph - N/A Rain Light Rain
5:13 AM 57.2 °F - 44.6 °F 63% 29.95 in 10.0 mi NNW 13.8 mph 19.6 mph N/A   Scattered Clouds
5:33 AM 57.2 °F - 42.8 °F 59% 29.96 in 10.0 mi NNW 13.8 mph 20.7 mph N/A   Clear
5:53 AM 57.2 °F - 42.8 °F 59% 29.96 in 10.0 mi NNW 13.8 mph 17.3 mph N/A   Clear
6:13 AM 57.2 °F - 42.8 °F 59% 29.97 in 10.0 mi NNW 15.0 mph 19.6 mph N/A   Clear
6:33 AM 55.4 °F - 42.8 °F 63% 29.98 in 10.0 mi NNW 12.7 mph 19.6 mph N/A   Scattered Clouds
6:53 AM 55.4 °F - 42.8 °F 63% 29.99 in 10.0 mi NW 12.7 mph - N/A   Scattered Clouds
7:13 AM 55.4 °F - 41.0 °F 58% 29.99 in 10.0 mi NNW 12.7 mph - N/A   Mostly Cloudy
7:33 AM 55.4 °F - 41.0 °F 58% 30.00 in 10.0 mi NNW 13.8 mph - N/A   Scattered Clouds
7:53 AM 53.6 °F - 41.0 °F 62% 30.00 in 10.0 mi NNW 10.4 mph - N/A   Clear
8:14 AM 53.6 °F - 41.0 °F 62% 30.01 in 10.0 mi NNW 12.7 mph - N/A   Clear
8:33 AM 53.6 °F - 41.0 °F 62% 30.02 in 10.0 mi NNW 12.7 mph - N/A   Clear
8:53 AM 55.4 °F - 41.0 °F 58% 30.03 in 10.0 mi NNW 15.0 mph - N/A   Clear
9:13 AM 59.0 °F - 41.0 °F 51% 30.03 in 10.0 mi NNW 15.0 mph - N/A   Clear
9:34 AM 60.8 °F - 39.2 °F 45% 30.03 in 10.0 mi NNW 15.0 mph 26.5 mph N/A   Clear
9:54 AM 62.6 °F - 39.2 °F 42% 30.04 in 10.0 mi North 18.4 mph 23.0 mph N/A   Clear
10:14 AM 62.6 °F - 39.2 °F 42% 30.04 in 10.0 mi North 20.7 mph 26.5 mph N/A   Clear
10:33 AM 64.4 °F - 39.2 °F 40% 30.05 in 10.0 mi North 20.7 mph 26.5 mph N/A   Clear
10:54 AM 66.2 °F - 39.2 °F 37% 30.04 in 10.0 mi North 17.3 mph 26.5 mph N/A   Scattered Clouds
11:13 AM 66.2 °F - 37.4 °F 35% 30.05 in 10.0 mi NNW 18.4 mph 25.3 mph N/A   Mostly Cloudy
11:33 AM 66.2 °F - 37.4 °F 35% 30.04 in 10.0 mi North 21.9 mph 27.6 mph N/A   Mostly Cloudy
11:53 AM 68.0 °F - 33.8 °F 28% 30.04 in 10.0 mi North 26.5 mph - N/A   Scattered Clouds
12:13 PM 69.8 °F - 33.8 °F 27% 30.04 in 10.0 mi North 24.2 mph 31.1 mph N/A   Clear
12:33 PM 69.8 °F - 33.8 °F 27% 30.04 in 10.0 mi North 23.0 mph 32.2 mph N/A   Clear
12:53 PM 69.8 °F - 32.0 °F 25% 30.03 in 10.0 mi North 25.3 mph 32.2 mph N/A   Clear
1:13 PM 69.8 °F - 32.0 °F 25% 30.03 in 10.0 mi North 24.2 mph 29.9 mph N/A   Clear
1:33 PM 69.8 °F - 30.2 °F 23% 30.02 in 10.0 mi NNW 24.2 mph 32.2 mph N/A   Clear
1:53 PM 69.8 °F - 30.2 °F 23% 30.02 in 10.0 mi North 23.0 mph 34.5 mph N/A   Clear
2:13 PM 69.8 °F - 30.2 °F 23% 30.01 in 10.0 mi NNW 23.0 mph 29.9 mph N/A   Clear
2:33 PM 71.6 °F - 28.4 °F 20% 30.00 in 10.0 mi NNW 24.2 mph 29.9 mph N/A   Clear
2:54 PM 71.6 °F - 28.4 °F 20% 30.00 in 10.0 mi NNW 21.9 mph 29.9 mph N/A   Clear
3:13 PM 71.6 °F - 26.6 °F 19% 29.99 in 10.0 mi North 24.2 mph 29.9 mph N/A   Clear
3:33 PM 71.6 °F - 26.6 °F 19% 30.00 in 10.0 mi NNW 20.7 mph 28.8 mph N/A   Clear
4:14 PM 71.6 °F - 24.8 °F 17% 29.99 in 10.0 mi North 20.7 mph 26.5 mph N/A   Clear
4:33 PM 71.6 °F - 24.8 °F 17% 29.99 in 10.0 mi North 19.6 mph 29.9 mph N/A   Clear
4:53 PM 71.6 °F - 23.0 °F 16% 29.99 in 10.0 mi NNW 19.6 mph 29.9 mph N/A   Clear
5:13 PM 71.6 °F - 23.0 °F 16% 29.99 in 10.0 mi North 23.0 mph 26.5 mph N/A   Clear
5:33 PM 69.8 °F - 23.0 °F 17% 30.00 in 10.0 mi North 20.7 mph 25.3 mph N/A   Clear
5:54 PM 69.8 °F - 21.2 °F 16% 30.00 in 10.0 mi North 17.3 mph - N/A   Clear
6:13 PM 68.0 °F - 21.2 °F 17% 30.00 in 10.0 mi North 15.0 mph - N/A   Clear
6:35 PM 64.4 °F - 24.8 °F 22% 30.00 in 10.0 mi North 10.4 mph - N/A   Clear
6:53 PM 62.6 °F - 24.8 °F 24% 30.00 in 10.0 mi North 9.2 mph - N/A   Clear
7:13 PM 59.0 °F - 24.8 °F 27% 30.00 in 10.0 mi North 8.1 mph - N/A   Clear
7:33 PM 57.2 °F - 24.8 °F 29% 30.00 in 10.0 mi North 6.9 mph - N/A   Clear
7:53 PM 55.4 °F - 23.0 °F 29% 30.01 in 10.0 mi NNW 9.2 mph - N/A   Clear
8:13 PM 53.6 °F - 23.0 °F 30% 30.01 in 10.0 mi NNW 8.1 mph - N/A   Clear
8:33 PM 51.8 °F - 24.8 °F 35% 30.01 in 10.0 mi NNW 5.8 mph - N/A   Clear
8:53 PM 48.2 °F - 24.8 °F 40% 30.01 in 10.0 mi Calm Calm - N/A   Clear
9:13 PM 48.2 °F - 24.8 °F 40% 30.01 in 10.0 mi North 3.5 mph - N/A   Clear
9:34 PM 46.4 °F - 26.6 °F 46% 30.01 in 10.0 mi Calm Calm - N/A   Clear
9:53 PM 44.6 °F 43.1 °F 26.6 °F 49% 30.01 in 10.0 mi NW 3.5 mph - N/A   Clear
10:13 PM 46.4 °F - 26.6 °F 46% 30.01 in 10.0 mi Calm Calm - N/A   Clear
10:33 PM 44.6 °F - 26.6 °F 49% 30.01 in 10.0 mi Calm Calm - N/A   Clear
10:53 PM 44.6 °F 43.1 °F 26.6 °F 49% 30.01 in 7.0 mi West 3.5 mph - N/A   Clear
11:13 PM 44.6 °F 41.4 °F 26.6 °F 49% 30.01 in 10.0 mi West 5.8 mph - N/A   Clear
11:33 PM 42.8 °F 39.3 °F 26.6 °F 53% 30.01 in 10.0 mi West 5.8 mph - N/A   Clear
11:53 PM 42.8 °F 40.1 °F 26.6 °F 53% 30.00 in 10.0 mi West 4.6 mph - N/A   Clear